Погода в Шемонаихе

Хотите узнать прогноз погоды в Шемонаихе? Тогда Вам сюда: Погода в Шемонаихе

Поиск расширенной информации на нашем сайте:

Полезная информация:

Новости сайта



02.01.2020
Опубликован Долгосрочный прогноз погоды по городам России и ближнего зарубежья на январь 2020 года.
Карты: Прогноз на январь и февраль 2020 года, Сравнение прогнозируемой аномалии приземной температуры воздуха на январь 2020 года по разным моделям.




Погода в Шемонаихе - сегодня

Время (UTC), дата Ветер
(°,м/с) 
Видим.   Явления Облачность Т
(°С)
Тd
(°С)
f(%) Тe
(°С)
Pmin
(гПа)
dP
(гПа)
Po
(мм)
O2
(г/м3)
Тmin Tmax R s Состояние
почвы
12 22.10.21 180 (Ю) 20000 м  слаб. ливневой дождь  10/10 300 м кучево-дожд. 
[Cb cap]
+3.4 +1.6 88 +3  1029  1.5  743  295           
15 22.10.21 200 (Ю) н/о  {ливн. осадки}  8/8 1000 м 
[Sc]
+2.6 +1.3 91 +2  1031.4  2.2  745  297    +4.1     
18 22.10.21 тихо ()   н/о  {ливн. осадки}  10/10 300 м кучево-дожд. 
[Cb cap]
+2 +0.7 91 +2  1032.6  1.1  746  298    +4.1     
21 22.10.21 200 (Ю) н/о    10/10 300 м кучево-дожд. 
[Cb cap]
+2.8 -0.8 77 +2  1032.9  0.3  746  298           
00 23.10.21 180 (Ю) н/о    9/9 300 м кучево-дожд. 
[Cb cap]
+3.2 -2.2 68 +1  1032.8  746  297           
03 23.10.21 180 (Ю) 20000 м    4/3 1000 м средняя 
[Sc|Ac trans]
+4 -3.9 56 +1  1033.3  0.6  746  297           
06 23.10.21 180 (Ю) 10  20000 м    4/4 1000 м 
[Sc]
+6.2 -4.9 45 +3  1032.2  -0.8  746  294  +1.8         
09 23.10.21 180 (Ю) 12{18}  20000 м    9/9 1000 м 
[Sc]
+7.3 -3.6 46 +4  1030.7  -1.3  745  293           
12 23.10.21 180 (Ю) 12{18}  20000 м    10/10 1000 м 
[Sc]
+7 -1.8 53 +3  1030.9  0.2  745  293           
15 23.10.21 180 (Ю) н/о  слаб. ливневой дождь  10/10 300 м кучево-дожд. 
[Cb cap]
+6.6 -1.7 55 +4  1032  746  294    +8.4  0.0     
18 23.10.21 180 (Ю) 10  н/о  {ливн. осадки}  10/10 300 м кучево-дожд. 
[Cb cap]
+6.2 -1 60 +3  1031.8  -0.3  745  294    +8.4  0.0     
21 23.10.21 180 (Ю) н/о    10/10 1000 м 
[Sc]
+5.6 -1.7 59 +3  1032.2  0.3  746  295           
00 24.10.21 180 (Ю) н/о    10/10 1000 м 
[Sc]
+5.4 -2 59 +2  1032.2  746  295           
03 24.10.21 180 (Ю) 20000 м    10/10 300 м кучево-дожд. 
[Cb cap]
+5.9 -3.8 50 +3  1032.6  0.5  746  295           
06 24.10.21 180 (Ю) 20000 м    10/10 1000 м 
[Sc]
+6.7 -3.4 48 +5  1032.1  -0.4  746  294  +5.3    0.0     
09 24.10.21 180 (Ю) 20000 м    9/9 1000 м 
[Sc]
+8.5 -2.1 47 +7  1030.4  -1.4  745  291           
12 24.10.21 160 (Ю) 20000 м    9/9 1000 м 
[Sc]
+7.9 -3 46 +6  1030.8  0.3  745  292           
15 24.10.21 180 (Ю) н/о    10/10 1000 м 
[Sc]
+7.8 -2.4 48 +8  1030.8  745  292    +9.4       
18 24.10.21 180 (Ю) н/о    10/10 1000 м 
[Sc]
+7 -1.8 53 +7  1030  -0.9  744  293    +9.4       
21 24.10.21 180 (Ю) н/о    9/9 1000 м 
[Sc]
+6.4 -2.3 54 +6  1028.5  -1.5  743  293           
00 25.10.21 тихо ()   н/о    3/3 1000 м 
[Sc]
+1.6 -2.5 74 +2  1027.8  -1.3  742  298           
03 25.10.21 тихо ()   4000 м  дымка  ясно 
+4.2 -0.3 72 +4  1026.6  -0.8  742  294           
06 25.10.21 160 (Ю) 20000 м    3/0 верхняя 
[Ci fib]
+10.8 -2.8 38 +11  1024.2  -1.5  740  287  -0.1         
09 25.10.21 180 (Ю) 20000 м    3/0 верхняя 
[Ci fib]
+12.1 -2.5 36 +12  1022.3  -1.7  739  285           
12 25.10.21 тихо ()   20000 м    1/0 верхняя 
[Ci fib]
+7.8 -2 50 +8  1022.2  -0.6  739  290           
Время (UTC), дата Ветер
(°,м/с) 
Видим.   Явления Облачность Т
(°С)
Тd
(°С)
f(%) Тe
(°С)
Pmin
(гПа)
dP
(гПа)
Po
(мм)
O2
(г/м3)
Тmin Tmax R s Состояние
почвы

Для получения пояснительной информации подведите курсор к названию столбца.

ПОГОДА в Шемонаихе - архив

Всё, что Вы хотите узнать о погоде в Шемонаихе - удобно и подробно!

Выберите нужную дату (начиная с 1 января 2019* года) и нажмите кнопку "Найти".
Будут отображены архивные сводки погоды по пункту Шемонаиха, начиная с указанной даты.


Отображать данные в формате CSV (для использования в таблицах Excel)


Внимание! Наш архив погоды предназначен исключительно для личного некоммерческого использования в познавательных целях. Если Вам необходимы официальные справки о состоянии погоды (для производственных, юридических, коммерческих и т.п. целей), обращайтесь в органы Росгидромета.

*Примечание: данная дата относится к архиву по метеостанциям СССР (Россия, СНГ, Балтия).
Архив по метеостанциям Зарубежной Европы и Азии (кроме Китая) хранится 10 дней, по другим регионам земного шара (Китай, Африка, Америка, Австралия, Океания) - 1 день.

Шемонаиха - район местоположения метеостанции


Название, широта, долгота, высота метеостанции:
Шемонаиха 50.6°ш. 81.9°д. 320 м над ур. моря [Казахстан]

Дополнительная информация

В oтличие oт бoльшинства пoгoдных сайтoв мы публикуем пoдрoбную метеoинфoрмацию в детальнoм прoфессиoнальнoм фoрмате.

Характеристики температуры и влажнoсти вoздуха измеряются на высoте 2 м в тени вдали oт зданий и деревьев.
Скoрoсть ветра измеряется на высoте 10 м (на урoвне рoста челoвека скoрoсть ветра ниже в 1.5-2 раза). Если метеoстанция нахoдится в гoрoде или в лесу, тo скoрoсть ветра занижена на 2-4 м/с пo сравнению с oткрытым местoм. Скoрoсть ветра над акватoриями крупных рек и oзёр, а также на вершинах хoлмoв на 2-5 м/с выше, чем в oбычных услoвиях.
Атмoсфернoе давление в разных тoчках местнoсти мoжет значительнo oтличаться oт давления на метеoстанции, в зависимoсти oт услoвий рельефа (при пoдъёме на 10 м давление пoнижается примернo на 1 мм рт.ст.).